Location: City of Moscow
(46.7306°N, 116.9989°W)
Time: 17:11:38
(UTC+00:00)

Cosmos 2058 Rocket - Pass Details

Date: 11 December 2025
Orbit: 603 x 633 km, 82.5° (Epoch: 15 January)

Event Time Altitude Azimuth Distance (km) Brightness Sun altitude
Exits shadow 13:18:52 26° 345° (NNW) 1,247 4.3 -20.3°
Maximum altitude 13:21:22 77° 263° (W) 641 2.9 -19.9°
Drops below altitude 10° 13:25:44 10° 178° (S) 1,972 5.8 -19.2°
Sets 13:27:55 0° 177° (S) 2,867 6.7 -18.8°
